Frankfort, KY

1:52 AM EST on December 17, 2017 (GMT -0500)
Capital City

Weather History for KFFT - July, 2012

Change the Weather History Date:

Thursday, July 12, 2012

  Actual Average Record
Temperature  
Mean Temperature 78 °F 76 °F  
Max Temperature 88 °F 87 °F 107 °F (1936)
Min Temperature 68 °F 66 °F 51 °F (1963)
Degree Days  
Heating Degree Days 0 0  
Month to date heating degree days 0 0  
Since 1 June heating degree days 14 10  
Since 1 July heating degree days 0 0  
Cooling Degree Days 13 11  
Month to date cooling degree days 204 132  
Year to date cooling degree days 616 467  
Since 1 June cooling degree days 435 368  
Growing Degree Days 28 (Base 50)    
Moisture  
Dew Point 66 °F    
Average Humidity 67    
Maximum Humidity 90    
Minimum Humidity 43    
Precipitation  
Precipitation 0.00 in 0.15 in 3.80 in (1928)
Month to date precipitation 0.35 1.58  
Year to date precipitation 19.11 25.14  
Sea Level Pressure  
Sea Level Pressure 30.06 in    
Wind  
Wind Speed 5 mph (SE)    
Max Wind Speed 15 mph    
Max Gust Speed 22 mph    
Visibility 10 miles    
Events Thunderstorm    
T = Trace of Precipitation, MM = Missing Value Source: NWS Daily Summary

Daily Weather History Graph

Daily Weather History Graph

Search for Another Location

Airport or City:

Trip Planner

Search our weather history database for the weather conditions in past years. The results will help you decide how hot, cold, wet, or windy it might be!

Date:

Astronomy

Jul. 12, 2012 Rise Set
Actual Time 6:26 AM EDT 9:03 PM EDT
Civil Twilight 5:55 AM EDT 9:34 PM EDT
Nautical Twilight 5:17 AM EDT 10:12 PM EDT
Astronomical Twilight 4:34 AM EDT 10:55 PM EDT
Moon 1:28 AM EDT (7/12) 3:36 PM EDT (7/12)
Length of Visible Light 15h 38m
Length of Day
14h 36m
Waning Crescent, 35% of the Moon is Illuminated
Jul 12
Waning Crescent
Jul 19
New
Jul 26
First Quarter
Aug 1
Full
Aug 9
Last Quarter

Hourly Weather History & Observations

Time (EDT) Temp. Heat Index Dew Point Humidity Pressure Visibility Wind Dir Wind Speed Gust Speed Precip Events Conditions
12:53 AM 75.0 °F - 64.0 °F 69% 30.04 in 10.0 mi SE 4.6 mph - N/A   Clear
1:53 AM 73.9 °F - 64.9 °F 73% 30.03 in 10.0 mi SE 4.6 mph - N/A   Clear
2:53 AM 72.0 °F - 64.9 °F 78% 30.04 in 10.0 mi SSE 3.5 mph - N/A   Clear
3:53 AM 72.0 °F - 64.9 °F 78% 30.03 in 10.0 mi Calm Calm - N/A   Clear
4:53 AM 70.0 °F - 64.9 °F 84% 30.03 in 10.0 mi Calm Calm - N/A   Clear
5:53 AM 69.1 °F - 64.0 °F 84% 30.03 in 10.0 mi SE 3.5 mph - N/A   Clear
6:53 AM 69.1 °F - 64.9 °F 87% 30.05 in 10.0 mi ESE 4.6 mph - N/A   Clear
7:53 AM 70.0 °F - 66.0 °F 87% 30.06 in 10.0 mi SE 3.5 mph - N/A   Scattered Clouds
8:53 AM 73.9 °F - 66.0 °F 76% 30.07 in 10.0 mi SE 4.6 mph - N/A   Partly Cloudy
9:53 AM 78.1 °F - 66.9 °F 68% 30.07 in 10.0 mi South 3.5 mph - N/A   Partly Cloudy
10:53 AM 80.1 °F 82.3 °F 66.9 °F 64% 30.07 in 10.0 mi SSE 4.6 mph - N/A   Mostly Cloudy
11:38 AM 82.4 °F 84.6 °F 66.2 °F 58% 30.10 in 10.0 mi ESE 4.6 mph - N/A   Overcast
11:53 AM 82.9 °F 85.0 °F 66.0 °F 56% 30.07 in 10.0 mi Calm Calm - N/A   Scattered Clouds
12:53 PM 86.0 °F 87.6 °F 64.9 °F 49% 30.07 in 10.0 mi Variable 3.5 mph - N/A   Clear
1:53 PM 84.9 °F 86.1 °F 64.0 °F 49% 30.05 in 10.0 mi Variable 4.6 mph - N/A   Clear
2:53 PM 87.1 °F 87.8 °F 63.0 °F 44% 30.05 in 10.0 mi ESE 8.1 mph - N/A   Partly Cloudy
3:53 PM 86.0 °F 86.8 °F 63.0 °F 46% 30.04 in 10.0 mi East 9.2 mph - N/A   Clear
4:53 PM 80.1 °F 81.9 °F 64.9 °F 60% 30.06 in 10.0 mi South 13.8 mph 21.9 mph N/A Thunderstorm Mostly Cloudy
5:01 PM 78.8 °F - 66.2 °F 65% 30.08 in 10.0 mi SSW 12.7 mph - N/A   Mostly Cloudy
5:37 PM 75.2 °F - 66.2 °F 73% 30.09 in 10.0 mi South 9.2 mph - N/A Thunderstorm Mostly Cloudy
5:53 PM 73.9 °F - 68.0 °F 82% 30.08 in 10.0 mi SSE 12.7 mph - N/A   Partly Cloudy
6:53 PM 75.0 °F - 66.9 °F 76% 30.07 in 10.0 mi SSW 5.8 mph - N/A   Clear
7:53 PM 75.0 °F - 68.0 °F 79% 30.07 in 10.0 mi SE 3.5 mph - N/A   Partly Cloudy
8:53 PM 73.9 °F - 68.0 °F 82% 30.07 in 10.0 mi SSE 3.5 mph - N/A   Clear
9:53 PM 73.0 °F - 69.1 °F 87% 30.08 in 10.0 mi ESE 6.9 mph - N/A   Clear
10:53 PM 72.0 °F - 66.9 °F 84% 30.09 in 10.0 mi East 4.6 mph - N/A   Clear
11:53 PM 72.0 °F - 66.9 °F 84% 30.09 in 10.0 mi ESE 4.6 mph - N/A   Clear